TimeMDT,TemperatureF,Dew PointF,Humidity,Sea Level PressureIn,VisibilityMPH,Wind Direction,Wind SpeedMPH,Gust SpeedMPH,PrecipitationIn,Events,Conditions,WindDirDegrees,DateUTC
12:53 AM,42.1,37.0,82,29.79,10.0,SW,5.8,-,N/A,,Partly Cloudy,230,2012-10-16 06:53:00
1:53 AM,45.0,39.0,80,29.76,10.0,SSW,6.9,-,N/A,,Clear,210,2012-10-16 07:53:00
2:53 AM,45.0,37.9,76,29.73,10.0,South,8.1,-,N/A,,Clear,180,2012-10-16 08:53:00
3:53 AM,45.0,39.0,80,29.71,10.0,South,10.4,-,N/A,,Clear,170,2012-10-16 09:53:00
4:53 AM,42.1,37.0,82,29.69,10.0,SSE,4.6,-,N/A,,Clear,150,2012-10-16 10:53:00
5:53 AM,42.8,37.4,81,29.73,10.0,South,9.2,-,N/A,,Clear,170,2012-10-16 11:53:00
6:53 AM,43.0,37.0,80,29.64,10.0,SSE,6.9,-,N/A,,Clear,150,2012-10-16 12:53:00
7:53 AM,48.0,35.1,61,29.60,10.0,SSW,18.4,21.9,N/A,,Clear,200,2012-10-16 13:53:00
8:03 AM,48.2,35.6,62,29.64,10.0,SSW,18.4,-,N/A,,Clear,200,2012-10-16 14:03:00
8:53 AM,52.0,35.1,53,29.55,10.0,SW,12.7,-,N/A,,Clear,220,2012-10-16 14:53:00
9:53 AM,57.9,33.1,39,29.51,10.0,SW,21.9,28.8,N/A,,Clear,220,2012-10-16 15:53:00
10:53 AM,59.0,33.1,38,29.47,10.0,SW,16.1,25.3,N/A,,Clear,220,2012-10-16 16:53:00
11:53 AM,63.0,34.0,34,29.44,10.0,SW,17.3,29.9,N/A,,Overcast,220,2012-10-16 17:53:00
12:53 PM,64.0,34.0,33,29.41,10.0,WSW,17.3,24.2,N/A,,Overcast,240,2012-10-16 18:53:00
1:53 PM,63.0,35.1,35,29.39,10.0,West,18.4,23.0,N/A,,Overcast,260,2012-10-16 19:53:00
2:53 PM,64.9,42.1,43,29.31,10.0,Variable,4.6,-,0.00,,Clear,0,2012-10-16 20:53:00
3:53 PM,66.0,39.0,37,29.33,10.0,NNE,4.6,-,N/A,,Mostly Cloudy,30,2012-10-16 21:53:00
4:07 PM,51.8,46.4,82,29.44,6.0,NNW,33.4,47.2,0.00,Rain,Light Rain,330,2012-10-16 22:07:00
4:19 PM,50.0,46.4,87,29.47,5.0,NNW,25.3,42.6,0.03,Rain,Light Rain,330,2012-10-16 22:19:00
4:53 PM,48.9,46.0,90,29.44,7.0,North,17.3,-,0.06,Rain,Light Rain,350,2012-10-16 22:53:00
5:53 PM,48.0,45.0,89,29.50,7.0,NNW,17.3,26.5,0.07,Rain,Light Rain,330,2012-10-16 23:53:00
6:53 PM,48.0,44.1,86,29.48,10.0,WSW,5.8,-,0.11,,Overcast,240,2012-10-17 00:53:00
7:53 PM,48.0,43.0,83,29.49,10.0,WNW,10.4,-,N/A,,Overcast,290,2012-10-17 01:53:00
8:15 PM,46.4,41.0,81,29.55,10.0,NNW,21.9,33.4,N/A,,Overcast,330,2012-10-17 02:15:00
8:53 PM,46.9,39.0,74,29.52,10.0,NW,12.7,-,N/A,,Mostly Cloudy,310,2012-10-17 02:53:00
9:53 PM,44.1,32.0,63,29.55,10.0,NW,15.0,-,N/A,,Overcast,310,2012-10-17 03:53:00
10:53 PM,42.1,27.0,55,29.58,10.0,WNW,17.3,-,N/A,,Partly Cloudy,300,2012-10-17 04:53:00
11:53 PM,41.0,25.0,53,29.60,10.0,WNW,18.4,-,N/A,,Clear,300,2012-10-17 05:53:00